K0VXP-1 Weather Reports


Display with metric or nautical units.
time (UTC)temp
F
wind
direction
speed
MPH
gust
MPH
rain 1hr
in
rain 24hr
in
rain mn
in
humidity
%
barometer
mb
20221207023012 25 163 2.0 4.0 0.00 0.05 0.05 84 1019.5
20221207021511 25 163 2.0 4.0 0.00 0.05 0.05 83 1019.5
20221207020010 26 242 1.0 3.0 0.00 0.05 0.05 82 1019.2
20221207014510 26 273 1.0 3.0 0.00 0.05 0.05 82 1018.9
20221207013010 27 298 0.0 4.0 0.00 0.05 0.05 82 1018.9
20221207011515 27 348 2.0 7.0 0.00 0.05 0.05 82 1018.8
20221207010011 27 5 2.0 8.0 0.00 0.05 0.05 82 1018.5
20221207004510 27 15 1.0 3.0 0.00 0.05 0.05 82 1018.4
20221207003015 27 37 1.0 2.0 0.00 0.05 0.05 82 1018.4
20221207001509 27 0 0.0 6.0 0.00 0.05 0.05 82 1018.4
20221207000009 27 304 4.0 9.0 0.00 0.05 0.05 82 1018.3
20221206234517 28 285 3.0 8.0 0.00 0.05 0.05 81 1018.1
20221206233010 28 293 2.0 8.0 0.00 0.05 0.05 81 1017.8
20221206231510 28 266 7.0 10.0 0.00 0.05 0.05 81 1017.7
20221206230010 29 278 4.0 9.0 0.00 0.05 0.05 81 1017.6
20221206224511 29 313 2.0 8.0 0.00 0.05 0.05 82 1017.3
20221206223010 29 263 1.0 5.0 0.00 0.05 0.05 83 1017.2
20221206221510 29 232 2.0 5.0 0.01 0.05 0.05 83 1017.0
20221206220010 29 321 2.0 5.0 0.01 0.05 0.05 85 1016.9
20221206214511 29 0 1.0 4.0 0.01 0.05 0.05 85 1016.8
20221206213010 29 257 0.0 3.0 0.02 0.05 0.05 85 1016.9
20221206211514 29 251 1.0 4.0 0.01 0.04 0.04 84 1016.7
20221206210018 29 252 2.0 6.0 0.02 0.04 0.04 84 1016.6
20221206204517 29 254 3.0 8.0 0.03 0.04 0.04 83 1016.4
20221206203011 30 216 3.0 7.0 0.02 0.03 0.03 84 1016.4
20221206201511 30 250 3.0 8.0 0.02 0.03 0.03 83 1016.3
20221206200010 30 259 3.0 6.0 0.01 0.02 0.02 83 1016.3
20221206194514 31 254 3.0 6.0 0.01 0.01 0.01 83 1016.2
20221206193018 31 227 2.0 7.0 0.01 0.01 0.01 82 1016.2
20221206191513 31 208 2.0 6.0 0.01 0.01 0.01 83 1016.3
20221206190010 30 192 1.0 5.0 0.01 0.01 0.01 86 1016.4
20221206184523 29 154 0.0 5.0 0.00 0.00 0.00 86 1016.5
20221206183010 29 153 2.0 6.0 0.00 0.00 0.00 88 1016.5
20221206181510 29 182 3.0 8.0 0.00 0.00 0.00 88 1016.8
20221206180011 29 150 3.0 5.0 0.00 0.00 0.00 88 1017.0
20221206174512 29 240 1.0 5.0 0.00 0.00 0.00 88 1017.2
20221206173010 29 265 2.0 4.0 0.00 0.00 0.00 88 1017.1
20221206171510 28 43 0.0 2.0 0.00 0.00 0.00 89 1016.8
20221206170010 28 9 1.0 3.0 0.00 0.00 0.00 91 1016.9
20221206164514 27 60 2.0 4.0 0.00 0.00 0.00 91 1016.8
20221206163011 27 67 2.0 5.0 0.00 0.00 0.00 92 1016.6
20221206161510 26 70 3.0 7.0 0.00 0.00 0.00 92 1016.4
20221206160010 26 75 2.0 5.0 0.00 0.00 0.00 92 1016.4
20221206154509 26 65 2.0 4.0 0.00 0.00 0.00 92 1016.3
20221206153010 26 0 0.0 3.0 0.00 0.00 0.00 92 1016.2
20221206151510 25 50 1.0 4.0 0.00 0.00 0.00 92 1015.9
20221206150010 25 0 1.0 5.0 0.00 0.00 0.00 92 1015.6
20221206144513 25 0 0.0 5.0 0.00 0.00 0.00 92 1015.3
20221206143010 25 107 2.0 4.0 0.00 0.00 0.00 92 1015.1
20221206141513 25 71 0.0 5.0 0.00 0.00 0.00 92 1015.2
20221206140010 25 48 1.0 7.0 0.00 0.00 0.00 92 1014.9
20221206134510 25 90 2.0 5.0 0.00 0.00 0.00 92 1014.5
20221206133015 25 315 1.0 4.0 0.00 0.00 0.00 92 1014.5
20221206131510 25 283 0.0 8.0 0.00 0.00 0.00 92 1014.2
20221206130010 25 271 2.0 7.0 0.00 0.00 0.00 92 1013.9
20221206124513 25 329 1.0 2.0 0.00 0.00 0.00 92 1013.6
20221206123014 25 0 0.0 2.0 0.00 0.00 0.00 92 1013.3
20221206121511 25 289 0.0 2.0 0.00 0.00 0.00 92 1013.1
20221206120010 26 278 2.0 6.0 0.00 0.00 0.00 92 1013.1
20221206114510 26 265 2.0 4.0 0.00 0.00 0.00 91 1012.9
20221206113012 26 287 2.0 8.0 0.00 0.00 0.00 91 1012.9
20221206111509 26 304 5.0 9.0 0.00 0.00 0.00 91 1012.8
20221206110014 26 309 2.0 12.0 0.00 0.00 0.00 91 1013.0
20221206104509 26 275 6.0 12.0 0.00 0.00 0.00 91 1013.1
20221206103013 26 290 4.0 10.0 0.00 0.00 0.00 91 1013.2
20221206101509 26 307 4.0 11.0 0.00 0.00 0.00 91 1013.2
20221206100019 26 310 6.0 14.0 0.00 0.00 0.00 91 1013.2
20221206094511 26 309 5.0 12.0 0.00 0.00 0.00 91 1013.1
20221206093010 27 304 9.0 15.0 0.00 0.00 0.00 91 1012.9
20221206091509 27 295 9.0 16.0 0.00 0.00 0.00 90 1012.8
20221206090011 27 281 7.0 14.0 0.00 0.00 0.00 90 1012.5
20221206084511 27 252 6.0 13.0 0.00 0.00 0.00 90 1012.4
20221206083013 27 296 10.0 19.0 0.00 0.00 0.00 89 1012.1
20221206081510 28 301 9.0 15.0 0.00 0.00 0.00 90 1011.8
20221206080011 29 292 8.0 16.0 0.00 0.00 0.00 89 1011.8
20221206074518 29 308 10.0 17.0 0.00 0.00 0.00 88 1011.8
20221206073011 31 314 6.0 17.0 0.00 0.00 0.00 86 1011.9
20221206071510 32 258 3.0 8.0 0.00 0.00 0.00 83 1011.8
20221206070016 32 215 6.0 9.0 0.00 0.00 0.00 85 1011.3
20221206064515 32 166 2.0 5.0 0.00 0.00 0.00 86 1011.4
20221206063017 32 160 2.0 5.0 0.00 0.00 0.00 88 1011.5
20221206061510 31 0 0.0 2.0 0.00 0.00 0.00 90 1011.5
20221206060016 31 321 0.0 3.0 0.00 0.00 0.00 90 1011.4
20221206054510 31 337 1.0 3.0 0.00 0.00 0.00 90 1011.6
20221206053012 31 352 2.0 4.0 0.00 0.00 0.00 90 1011.3
20221206051510 31 304 2.0 4.0 0.00 0.00 0.00 90 1011.4
20221206050010 31 0 0.0 3.0 0.00 0.00 0.00 90 1011.2
20221206044518 31 268 0.0 4.0 0.00 0.00 0.00 90 1011.4
20221206043010 31 295 0.0 4.0 0.00 0.00 0.00 90 1011.3
20221206041511 31 304 0.0 2.0 0.00 0.00 0.00 90 1011.2
20221206040011 31 320 0.0 3.0 0.00 0.00 0.00 90 1011.4
20221206034510 31 318 1.0 4.0 0.00 0.00 0.00 90 1011.3
20221206033010 31 315 1.0 8.0 0.00 0.00 0.00 90 1011.4
20221206031511 32 304 2.0 5.0 0.00 0.00 0.00 90 1011.5
20221206030011 32 299 2.0 5.0 0.00 0.00 0.00 91 1011.8
20221206024517 32 272 0.0 4.0 0.00 0.00 0.00 91 1011.8